GW3595 Weather Reports


time (UTC)temp
F
wind
direction
speed
knots
gust
knots
rain 1hr
in
rain 24hr
in
rain mn
in
humidity
%
barometer
mb
20260507085704 66 197 2.6 5.2 0.00 0.00 0.00 56 1011.3
20260507084704 66 297 2.6 5.2 0.00 0.00 0.00 58 1011.3
20260507084205 65 282 1.7 5.2 0.00 0.00 0.00 58 1011.2
20260507083704 65 266 1.7 6.1 0.00 0.00 0.00 59 1011.3
20260507082205 65 282 3.5 6.1 0.00 0.00 0.00 62 1011.2
20260507081705 65 255 3.5 6.1 0.00 0.00 0.00 62 1011.2
20260507081205 65 229 2.6 5.2 0.00 0.00 0.00 63 1011.1
20260507080721 64 294 2.6 5.2 0.00 0.00 0.00 64 1011.1
20260507075704 65 257 2.6 5.2 0.00 0.00 0.00 63 1011.1
20260507075204 64 246 1.7 2.6 0.00 0.00 0.00 67 1011.1
20260507074704 63 265 0.9 2.6 0.00 0.00 0.00 66 1011.1
20260507074205 62 202 0.9 3.5 0.00 0.00 0.00 69 1011.1
20260507072205 62 144 2.6 6.1 0.00 0.00 0.00 71 1010.9
20260507071705 61 138 3.5 5.2 0.00 0.00 0.00 72 1010.8
20260507071204 61 146 2.6 5.2 0.00 0.00 0.00 73 1010.8
20260507070704 61 126 2.6 5.2 0.00 0.00 0.00 73 1010.8
20260507070204 61 115 1.7 4.3 0.00 0.00 0.00 74 1010.8
20260507065705 60 119 1.7 3.5 0.00 0.00 0.00 75 1010.9
20260507065205 59 115 1.7 3.5 0.00 0.00 0.00 76 1010.9
20260507063704 57 0 1.7 2.6 0.00 0.00 0.00 80 1010.9
20260507063205 57 0 0.9 2.6 0.00 0.00 0.00 81 1010.9
20260507062704 56 0 0.9 2.6 0.00 0.00 0.00 81 1011.0
20260507062205 56 0 0.9 3.5 0.00 0.00 0.00 82 1010.9
20260507061704 56 0 0.9 3.5 0.00 0.00 0.00 82 1010.8
20260507061205 56 0 0.9 3.5 0.00 0.00 0.00 83 1010.8
20260507060705 56 0 1.7 3.5 0.00 0.00 0.00 83 1010.7
20260507060204 55 0 1.7 3.5 0.00 0.00 0.00 83 1010.7
20260507055705 55 0 1.7 2.6 0.00 0.00 0.00 84 1010.7
20260507055205 55 0 0.9 2.6 0.00 0.00 0.00 85 1010.7
20260507054205 54 0 0.9 2.6 0.00 0.00 0.00 85 1010.6
20260507053704 54 0 1.7 2.6 0.00 0.00 0.00 85 1010.6
20260507053205 54 0 1.7 2.6 0.00 0.00 0.00 86 1010.6
20260507052704 54 0 0.9 2.6 0.00 0.00 0.00 85 1010.5
20260507052205 54 0 0.9 2.6 0.00 0.00 0.00 85 1010.5
20260507051704 54 0 0.9 2.6 0.00 0.00 0.00 85 1010.2
20260507051205 54 0 0.9 2.6 0.00 0.00 0.00 84 1010.2
20260507050204 53 0 1.7 3.5 0.00 0.00 0.00 84 1010.2
20260507045705 53 0 1.7 3.5 0.00 0.00 0.00 85 1010.1
20260507045205 53 0 1.7 2.6 0.00 0.00 0.00 85 1010.1
20260507044704 53 0 1.7 2.6 0.00 0.00 0.00 86 1010.0
20260507044205 53 0 1.7 2.6 0.00 0.00 0.00 86 1010.0
20260507043704 53 0 0.9 1.7 0.00 0.00 0.00 87 1010.0
20260507043205 53 0 0.0 1.7 0.00 0.00 0.00 87 1010.0
20260507042705 53 0 0.0 3.5 0.00 0.00 0.00 87 1010.0
20260507041705 53 0 1.7 3.5 0.00 0.00 0.00 87 1009.9
20260507041204 52 0 1.7 3.5 0.00 0.00 0.00 88 1009.9
20260507040704 52 0 0.9 2.6 0.00 0.00 0.00 89 1009.8
20260507035705 52 0 0.0 3.5 0.00 0.00 0.00 89 1009.8
20260507035205 52 0 0.9 3.5 0.00 0.00 0.00 88 1009.7
20260507034704 52 0 1.7 3.5 0.00 0.00 0.00 88 1009.7
20260507034205 52 0 0.9 2.6 0.00 0.00 0.00 89 1009.7
20260507032205 52 0 0.9 1.7 0.00 0.00 0.00 89 1009.4
20260507031705 52 0 0.9 1.7 0.00 0.00 0.00 89 1009.4
20260507030705 52 0 0.0 1.7 0.00 0.00 0.00 89 1009.4
20260507030205 52 0 0.0 1.7 0.00 0.00 0.00 89 1009.4
20260507025705 52 0 0.9 1.7 0.00 0.00 0.00 88 1009.4
20260507025204 52 0 0.0 0.9 0.00 0.00 0.00 88 1009.4
20260507024204 52 0 0.0 0.9 0.00 0.00 0.00 88 1009.3
20260507023204 53 0 0.0 1.7 0.00 0.00 0.00 88 1009.2
20260507022705 53 0 0.0 1.7 0.00 0.00 0.00 88 1009.3
20260507022205 53 0 0.0 1.7 0.00 0.00 0.00 88 1009.4
20260507021704 53 0 0.0 1.7 0.00 0.00 0.00 88 1009.3
20260507021205 53 0 0.0 1.7 0.00 0.00 0.00 88 1009.3
20260507020722 53 0 0.0 0.9 0.00 0.00 0.00 88 1009.3
20260507020205 53 0 0.0 0.9 0.00 0.00 0.00 88 1009.2
20260507015204 53 0 0.0 1.7 0.00 0.00 0.00 88 1009.3
20260507014705 53 0 0.0 1.7 0.00 0.00 0.00 88 1009.3
20260507014204 53 0 0.9 1.7 0.00 0.00 0.00 88 1009.3
20260507013705 53 0 0.9 2.6 0.00 0.00 0.00 88 1009.3
20260507013204 53 0 0.9 2.6 0.00 0.00 0.00 88 1009.2
20260507012705 53 0 0.9 2.6 0.00 0.00 0.00 88 1009.2
20260507012205 53 0 0.0 1.7 0.00 0.00 0.00 88 1009.2
20260507011212 53 0 0.0 2.6 0.00 0.00 0.00 87 1009.1
20260507010704 53 0 0.0 2.6 0.00 0.00 0.00 87 1009.1
20260507010204 53 0 0.9 2.6 0.00 0.00 0.00 87 1009.1
20260507005705 53 0 0.9 1.7 0.00 0.00 0.00 87 1009.0
20260507005204 53 0 0.0 1.7 0.00 0.00 0.00 87 1009.0
20260507004705 54 0 0.0 1.7 0.00 0.00 0.00 86 1009.0
20260507004204 54 0 0.9 2.6 0.00 0.00 0.00 86 1008.9
20260507003705 54 0 0.9 2.6 0.00 0.00 0.00 86 1008.9
20260507003205 54 0 0.9 2.6 0.00 0.00 0.00 86 1008.9
20260507002704 54 0 0.9 2.6 0.00 0.00 0.00 87 1009.0
20260507002205 54 0 0.0 0.9 0.00 0.00 0.00 87 1008.9
20260507001704 54 0 0.0 0.9 0.00 0.00 0.00 87 1008.8
20260507001205 54 0 0.0 0.9 0.00 0.00 0.00 87 1008.9
20260507000705 54 0 0.0 0.9 0.00 0.00 0.00 87 1008.9
20260507000205 54 0 0.0 1.7 0.00 0.00 0.00 86 1008.9
20260506235705 54 0 0.0 1.7 0.00 0.00 0.00 86 1008.9
20260506235204 54 0 0.9 1.7 0.00 0.00 0.00 85 1008.9
20260506234704 55 0 0.0 1.7 0.00 0.00 0.00 85 1008.8
20260506233704 55 126 0.9 1.7 0.00 0.00 0.00 84 1008.8
20260506233204 56 111 0.9 1.7 0.00 0.00 0.00 84 1008.9
20260506232205 56 244 0.9 4.3 0.00 0.00 0.00 83 1008.7
20260506231704 56 234 1.7 4.3 0.00 0.00 0.00 83 1008.8
20260506231220 56 211 2.6 4.3 0.00 0.00 0.00 83 1008.6
20260506230704 56 202 2.6 3.5 0.00 0.00 0.00 83 1008.8
20260506230205 56 209 1.7 3.5 0.00 0.00 0.00 83 1008.9
20260506225704 56 189 0.9 3.5 0.00 0.00 0.00 83 1008.8
20260506225205 56 150 0.9 3.5 0.00 0.00 0.00 84 1008.8
20260506224705 56 153 0.9 3.5 0.00 0.00 0.00 84 1008.8
20260506224205 56 191 0.9 0.9 0.00 0.00 0.00 84 1008.7
20260506223705 56 116 0.0 1.7 0.00 0.00 0.00 84 1008.6
20260506223204 56 114 0.0 1.7 0.00 0.00 0.00 83 1008.6
20260506222705 56 117 0.9 0.9 0.00 0.00 0.00 83 1008.6
20260506221705 56 112 0.0 0.9 0.00 0.00 0.00 83 1008.7
20260506221205 56 109 0.0 0.9 0.00 0.00 0.00 83 1008.7
20260506220705 56 110 0.0 0.0 0.00 0.00 0.00 83 1008.8
20260506220205 56 108 0.0 0.9 0.00 0.00 0.00 84 1008.8
20260506215704 56 111 0.0 0.9 0.00 0.00 0.00 83 1008.8
20260506215205 56 110 0.0 0.9 0.00 0.00 0.00 84 1008.7
20260506214704 56 112 0.0 0.9 0.00 0.00 0.00 84 1008.8
20260506214205 55 116 0.0 0.9 0.00 0.00 0.00 84 1008.8
20260506213704 56 115 0.0 1.7 0.00 0.00 0.00 84 1008.8
20260506213205 56 119 0.9 1.7 0.00 0.00 0.00 84 1008.7
20260506212704 56 119 0.9 0.9 0.00 0.00 0.00 84 1008.6
20260506212205 56 106 0.0 1.7 0.00 0.00 0.00 84 1008.6
20260506211705 56 107 0.0 1.7 0.00 0.00 0.00 84 1008.6
20260506211205 55 109 0.0 1.7 0.00 0.00 0.00 84 1008.5
20260506210204 56 118 0.0 0.9 0.00 0.00 0.00 83 1008.4
20260506205705 56 119 0.0 3.5 0.00 0.00 0.00 82 1008.4
20260506205204 56 116 0.9 3.5 0.00 0.00 0.00 82 1008.5
20260506204704 57 117 0.9 3.5 0.00 0.00 0.00 81 1008.4
20260506204205 57 116 0.9 2.6 0.00 0.00 0.00 80 1008.5
20260506203704 58 110 0.0 2.6 0.00 0.00 0.00 79 1008.5
20260506203204 58 207 0.9 2.6 0.00 0.00 0.00 78 1008.5
20260506202704 59 190 1.7 2.6 0.00 0.00 0.00 77 1008.4
20260506202205 59 205 0.9 1.7 0.00 0.00 0.00 78 1008.3
20260506201704 58 200 0.9 1.7 0.00 0.00 0.00 78 1008.2
20260506201205 58 0 0.9 1.7 0.00 0.00 0.00 79 1008.2
20260506200704 58 0 0.9 1.7 0.00 0.00 0.00 79 1008.2
20260506200205 59 198 0.9 1.7 0.00 0.00 0.00 78 1008.3
20260506195204 59 187 0.9 2.6 0.00 0.00 0.00 78 1008.3
20260506194705 59 187 0.9 2.6 0.00 0.00 0.00 78 1008.3
20260506194205 59 186 0.0 1.7 0.00 0.00 0.00 78 1008.3
20260506193705 59 203 0.0 1.7 0.00 0.00 0.00 78 1008.2
20260506193204 59 205 0.0 1.7 0.00 0.00 0.00 79 1008.2
20260506192705 58 211 0.0 1.7 0.00 0.00 0.00 79 1008.1
20260506192204 58 205 0.0 1.7 0.00 0.00 0.00 79 1008.1
20260506191704 59 295 0.0 1.7 0.00 0.00 0.00 78 1008.1
20260506191205 59 296 0.0 0.9 0.00 0.00 0.00 78 1008.2
20260506190704 59 270 0.0 2.6 0.00 0.00 0.00 76 1008.0
20260506190205 60 272 0.0 2.6 0.00 0.00 0.00 75 1008.0
20260506185205 61 211 0.9 4.3 0.00 0.00 0.00 74 1007.6
20260506184704 61 0 0.9 4.3 0.00 0.00 0.00 74 1007.5
20260506184205 61 0 1.7 4.3 0.00 0.00 0.00 74 1007.4
20260506183205 61 244 1.7 4.3 0.00 0.00 0.00 74 1007.3
20260506182705 61 253 1.7 5.2 0.00 0.00 0.00 73 1007.1
20260506181705 62 250 1.7 6.1 0.00 0.00 0.00 72 1007.0
20260506181205 62 217 2.6 6.1 0.00 0.00 0.00 71 1006.9
20260506180705 62 196 2.6 6.1 0.00 0.00 0.00 71 1006.9
20260506175705 62 212 2.6 6.1 0.00 0.00 0.00 70 1007.0
20260506175204 62 167 2.6 6.1 0.00 0.00 0.00 70 1006.9
20260506174704 63 217 2.6 6.1 0.00 0.00 0.00 70 1006.9
20260506174205 63 197 2.6 6.1 0.00 0.00 0.00 70 1006.9
20260506173704 63 213 2.6 6.1 0.00 0.00 0.00 70 1006.8
20260506173205 63 225 2.6 7.8 0.00 0.00 0.00 69 1006.8
20260506172704 64 235 2.6 7.8 0.00 0.00 0.00 69 1006.8
20260506172205 64 232 2.6 7.8 0.00 0.00 0.00 69 1006.9
20260506171705 64 201 2.6 6.1 0.00 0.00 0.00 68 1006.7
20260506171204 64 180 2.6 7.8 0.00 0.00 0.00 68 1006.7
20260506170704 64 192 3.5 7.8 0.00 0.00 0.00 68 1006.7
20260506170205 64 240 3.5 7.8 0.00 0.00 0.00 67 1006.7
20260506165705 64 189 3.5 7.8 0.00 0.00 0.00 67 1006.7
20260506165205 64 238 3.5 7.8 0.00 0.00 0.00 67 1006.8
20260506164205 64 242 3.5 7.0 0.00 0.00 0.00 66 1006.9
20260506163705 64 235 3.5 7.0 0.00 0.00 0.00 66 1006.9
20260506163204 65 0 3.5 10.4 0.00 0.00 0.00 66 1006.9
20260506162705 65 242 3.5 10.4 0.00 0.00 0.00 65 1006.9
20260506162216 65 143 4.3 11.3 0.00 0.00 0.00 65 1007.0
20260506161707 65 208 5.2 11.3 0.00 0.00 0.00 65 1007.1
20260506161207 65 240 5.2 11.3 0.00 0.00 0.00 65 1007.1
20260506160704 65 240 4.3 9.6 0.00 0.00 0.00 64 1007.0
20260506160228 66 183 4.3 9.6 0.00 0.00 0.00 63 1006.9
20260506155705 67 173 3.5 8.7 0.00 0.00 0.00 62 1007.0
20260506155205 68 0 2.6 8.7 0.00 0.00 0.00 61 1007.0
20260506154705 68 0 3.5 8.7 0.00 0.00 0.00 60 1007.1
20260506153705 67 218 3.5 7.0 0.00 0.00 0.00 62 1007.1
20260506153205 66 217 3.5 7.0 0.00 0.00 0.00 63 1007.1
20260506152704 66 198 3.5 7.0 0.00 0.00 0.00 63 1007.2
20260506151704 66 236 3.5 10.4 0.00 0.00 0.00 63 1007.2
20260506151205 66 188 3.5 13.0 0.00 0.00 0.00 63 1007.2
20260506150705 66 225 4.3 13.0 0.00 0.00 0.00 62 1007.3
20260506150205 66 183 4.3 13.0 0.00 0.00 0.00 62 1007.2
20260506145705 66 180 4.3 11.3 0.00 0.00 0.00 62 1007.3
20260506145204 67 153 4.3 11.3 0.00 0.00 0.00 61 1007.2
20260506144704 67 233 4.3 12.2 0.00 0.00 0.00 61 1007.1
20260506144204 67 209 6.1 12.2 0.00 0.00 0.00 60 1007.2
20260506143205 67 214 4.3 9.6 0.00 0.00 0.00 59 1007.1
20260506142205 67 178 4.3 11.3 0.00 0.00 0.00 59 1007.1
20260506140705 68 215 4.3 10.4 0.00 0.00 0.00 58 1007.1
20260506140204 68 211 4.3 11.3 0.00 0.00 0.00 57 1007.0
20260506135204 69 195 4.3 11.3 0.00 0.00 0.00 56 1007.0
20260506134704 69 196 4.3 8.7 0.00 0.00 0.00 55 1007.0
20260506134205 69 146 3.5 8.7 0.00 0.00 0.00 55 1007.1
20260506133704 70 225 3.5 9.6 0.00 0.00 0.00 55 1007.1
20260506132704 69 215 5.2 10.4 0.00 0.00 0.00 55 1007.2
20260506132205 69 171 4.3 10.4 0.00 0.00 0.00 54 1007.2
20260506131204 70 184 4.3 10.4 0.00 0.00 0.00 53 1007.3
20260506130704 71 200 4.3 10.4 0.00 0.00 0.00 52 1007.1
20260506125704 71 243 3.5 8.7 0.00 0.00 0.00 52 1007.2
20260506125205 70 201 3.5 8.7 0.00 0.00 0.00 52 1007.3
20260506124704 70 197 3.5 9.6 0.00 0.00 0.00 51 1007.3
20260506124205 70 247 4.3 9.6 0.00 0.00 0.00 50 1007.4
20260506123704 71 204 4.3 9.6 0.00 0.00 0.00 50 1007.4
20260506123205 71 254 4.3 9.6 0.00 0.00 0.00 50 1007.5
20260506122704 71 215 4.3 8.7 0.00 0.00 0.00 50 1007.4
20260506122205 71 180 3.5 8.7 0.00 0.00 0.00 50 1007.5
20260506121705 71 249 3.5 8.7 0.00 0.00 0.00 49 1007.4
20260506121205 70 191 3.5 8.7 0.00 0.00 0.00 52 1007.5
20260506120704 70 213 4.3 12.2 0.00 0.00 0.00 52 1007.5
20260506120222 70 271 4.3 12.2 0.00 0.00 0.00 52 1007.5
20260506115704 70 229 4.3 12.2 0.00 0.00 0.00 51 1007.6
20260506115204 70 275 3.5 9.6 0.00 0.00 0.00 49 1007.6
20260506114704 70 198 4.3 9.6 0.00 0.00 0.00 50 1007.7
20260506114227 71 253 4.3 9.6 0.00 0.00 0.00 48 1007.7
20260506113205 71 267 3.5 12.2 0.00 0.00 0.00 45 1007.9
20260506112704 72 282 4.3 12.2 0.00 0.00 0.00 45 1008.0
20260506111704 71 221 5.2 13.0 0.00 0.00 0.00 46 1008.1
20260506111205 70 263 5.2 9.6 0.00 0.00 0.00 47 1008.1
20260506110705 69 227 4.3 9.6 0.00 0.00 0.00 49 1008.0
20260506110205 69 242 4.3 9.6 0.00 0.00 0.00 50 1008.2
20260506105704 69 279 4.3 8.7 0.00 0.00 0.00 53 1008.2
20260506105205 68 242 3.5 10.4 0.00 0.00 0.00 54 1008.3
20260506104704 68 184 3.5 10.4 0.00 0.00 0.00 53 1008.3
20260506104205 68 242 5.2 10.4 0.00 0.00 0.00 52 1008.4
20260506103704 68 262 4.3 10.4 0.00 0.00 0.00 52 1008.4
20260506103205 68 236 3.5 9.6 0.00 0.00 0.00 51 1008.4
20260506102205 69 215 2.6 7.8 0.00 0.00 0.00 47 1008.4
20260506100704 69 248 3.5 7.8 0.00 0.00 0.00 48 1008.4
20260506100223 69 257 3.5 8.7 0.00 0.00 0.00 48 1008.4
20260506095705 69 235 4.3 8.7 0.00 0.00 0.00 47 1008.5
20260506095205 69 220 4.3 10.4 0.00 0.00 0.00 46 1008.4
20260506094204 72 226 4.3 10.4 0.00 0.00 0.00 44 1008.4
20260506093705 71 247 4.3 10.4 0.00 0.00 0.00 45 1008.4
20260506093204 71 192 4.3 9.6 0.00 0.00 0.00 45 1008.4
20260506092205 71 222 4.3 12.2 0.00 0.00 0.00 45 1008.3
20260506091704 70 241 4.3 12.2 0.00 0.00 0.00 45 1008.3
20260506091204 70 238 3.5 10.4 0.00 0.00 0.00 45 1008.3
20260506090704 70 152 4.3 10.4 0.00 0.00 0.00 47 1008.2
20260506090205 71 154 4.3 10.4 0.00 0.00 0.00 46 1008.3